This is the latest recevied weather packets stored in our database for station/object EA1CUE-WX. If no packets are shown the sender has not sent any weather packets the latest 10 day(s).
| Time | Temp. | Humidity | Pressure | Rain* | Wind** | Luminosity | Snow |
|---|---|---|---|---|---|---|---|
| 1787773130 | 12.78° C | 1% | 1010.6 hPa | 0 mm | - | - | - |
| 1787772830 | 12.78° C | 1% | 1010.6 hPa | 0 mm | - | - | - |
| 1787772530 | 12.78° C | 1% | 1010.6 hPa | 0 mm | - | - | - |
| 1787772230 | 12.78° C | 1% | 1010.4 hPa | 0.25 mm | - | - | - |
| 1787771930 | 13.33° C | 1% | 1010.3 hPa | 0.25 mm | - | - | - |
| 1787771629 | 13.33° C | 1% | 1010.2 hPa | 0.25 mm | - | - | - |
| 1787771330 | 13.33° C | 1% | 1010.1 hPa | 0.51 mm | - | - | - |
| 1787771030 | 13.33° C | 1% | 1010 hPa | 0.76 mm | - | - | - |
| 1787770730 | 13.89° C | 1% | 1010 hPa | 1.02 mm | - | - | - |
| 1787770430 | 13.89° C | 1% | 1009.8 hPa | 1.02 mm | - | - | - |
| 1787770130 | 14.44° C | 1% | 1009.8 hPa | 1.02 mm | - | - | - |
| 1787769830 | 14.44° C | 1% | 1009.7 hPa | 1.02 mm | - | - | - |
| 1787769530 | 14.44° C | 1% | 1009.5 hPa | 1.02 mm | - | - | - |
| 1787769230 | 14.44° C | 1% | 1009.4 hPa | 1.02 mm | - | - | - |
| 1787768930 | 15° C | 1% | 1009.3 hPa | 0.76 mm | - | - | - |
| 1787768630 | 15° C | 1% | 1009.3 hPa | 0.76 mm | - | - | - |
| 1787768330 | 15° C | 1% | 1009.4 hPa | 0.76 mm | - | - | - |
| 1787768030 | 15° C | 1% | 1009.2 hPa | 0.76 mm | - | - | - |
| 1787767729 | 15.56° C | 1% | 1009.2 hPa | 0.51 mm | - | - | - |
| 1787767430 | 16.11° C | 1% | 1009.2 hPa | 0 mm | - | - | - |
| 1787767130 | 16.11° C | 11% | 1009.4 hPa | 0 mm | - | - | - |
| 1787766830 | 16.11° C | 18% | 1009 hPa | 0 mm | - | - | - |
| 1787766530 | 16.67° C | 22% | 1009 hPa | 0 mm | - | - | - |
| 1787766230 | 16.67° C | 25% | 1008.9 hPa | 0 mm | - | - | - |
| 1787765930 | 16.67° C | 28% | 1008.9 hPa | 0 mm | - | - | - |
* Rain latest hour (hover to see other rain measurements)
** Current wind speed in m/s (hover to see current wind gust speed)